Year,Month,Day,Hour,Minute,Value (Times are PST for insolation in W/m^2)
2010,06,01,00,00,0.00
2010,06,01,00,01,0.00
2010,06,01,00,02,0.00
2010,06,01,00,03,0.00
2010,06,01,00,04,0.00
2010,06,01,00,05,0.00
2010,06,01,00,06,0.00
2010,06,01,00,07,0.00
2010,06,01,00,08,0.00
2010,06,01,00,09,0.00
2010,06,01,00,10,0.00
2010,06,01,00,11,0.00
2010,06,01,00,12,0.00
2010,06,01,00,13,0.00
2010,06,01,00,14,0.00
2010,06,01,00,15,0.00
2010,06,01,00,16,0.00
2010,06,01,00,17,0.00
2010,06,01,00,18,0.00
2010,06,01,00,19,0.00
2010,06,01,00,20,0.00
2010,06,01,00,21,0.00
2010,06,01,00,22,0.00
2010,06,01,00,23,0.00
2010,06,01,00,24,0.00
2010,06,01,00,25,0.00
2010,06,01,00,26,0.00
2010,06,01,00,27,0.00
2010,06,01,00,28,0.00
2010,06,01,00,29,0.00
2010,06,01,00,30,0.00
2010,06,01,00,31,0.00
2010,06,01,00,32,0.00
2010,06,01,00,33,0.00
2010,06,01,00,34,0.00
2010,06,01,00,35,0.00
2010,06,01,00,36,0.00
2010,06,01,00,37,0.00
2010,06,01,00,38,0.00
2010,06,01,00,39,0.00
2010,06,01,00,40,0.00
2010,06,01,00,41,0.00
2010,06,01,00,42,0.00
2010,06,01,00,43,0.00
2010,06,01,00,44,0.00
2010,06,01,00,45,0.00
2010,06,01,00,46,0.00
2010,06,01,00,47,0.00
2010,06,01,00,48,0.00
2010,06,01,00,49,0.00
2010,06,01,00,50,0.00
2010,06,01,00,51,0.00
2010,06,01,00,52,0.00
2010,06,01,00,53,0.00
2010,06,01,00,54,0.00
2010,06,01,00,55,0.00
2010,06,01,00,56,0.00
2010,06,01,00,57,0.00
2010,06,01,00,58,0.00
2010,06,01,00,59,0.00
2010,06,01,01,00,0.00
2010,06,01,01,01,0.00
2010,06,01,01,02,0.00
2010,06,01,01,03,0.00
2010,06,01,01,04,0.00
2010,06,01,01,05,0.00
2010,06,01,01,06,0.00
2010,06,01,01,07,0.00
2010,06,01,01,08,0.00
2010,06,01,01,09,0.00
2010,06,01,01,10,0.00
2010,06,01,01,11,0.00
2010,06,01,01,12,0.00
2010,06,01,01,13,0.00
2010,06,01,01,14,0.00
2010,06,01,01,15,0.00
2010,06,01,01,16,0.00
2010,06,01,01,17,0.00
2010,06,01,01,18,0.00
2010,06,01,01,19,0.00
2010,06,01,01,20,0.00
2010,06,01,01,21,0.00
2010,06,01,01,22,0.00
2010,06,01,01,23,0.00
2010,06,01,01,24,0.00
2010,06,01,01,25,0.00
2010,06,01,01,26,0.00
2010,06,01,01,27,0.00
2010,06,01,01,28,0.00
2010,06,01,01,29,0.00
2010,06,01,01,30,0.00
2010,06,01,01,31,0.00
2010,06,01,01,32,0.00
2010,06,01,01,33,0.00
2010,06,01,01,34,0.00
2010,06,01,01,35,0.00
2010,06,01,01,36,0.00
2010,06,01,01,37,0.00
2010,06,01,01,38,0.00
2010,06,01,01,39,0.00
2010,06,01,01,40,0.00
2010,06,01,01,41,0.00
2010,06,01,01,42,0.00
2010,06,01,01,43,0.00
2010,06,01,01,44,0.00
2010,06,01,01,45,0.00
2010,06,01,01,46,0.00
2010,06,01,01,47,0.00
2010,06,01,01,48,0.00
2010,06,01,01,49,0.00
2010,06,01,01,50,0.00
2010,06,01,01,51,0.00
2010,06,01,01,52,0.00
2010,06,01,01,53,0.00
2010,06,01,01,54,0.00
2010,06,01,01,55,0.00
2010,06,01,01,56,0.00
2010,06,01,01,57,0.00
2010,06,01,01,58,0.00
2010,06,01,01,59,0.00
2010,06,01,02,00,0.00
2010,06,01,02,01,0.00
2010,06,01,02,02,0.00
2010,06,01,02,03,0.00
2010,06,01,02,04,0.00
2010,06,01,02,05,0.00
2010,06,01,02,06,0.00
2010,06,01,02,07,0.00
2010,06,01,02,08,0.00
2010,06,01,02,09,0.00
2010,06,01,02,10,0.00
2010,06,01,02,11,0.00
2010,06,01,02,12,0.00
2010,06,01,02,13,0.00
2010,06,01,02,14,0.00
2010,06,01,02,15,0.00
2010,06,01,02,16,0.00
2010,06,01,02,17,0.00
2010,06,01,02,18,0.00
2010,06,01,02,19,0.00
2010,06,01,02,20,0.00
2010,06,01,02,21,0.00
2010,06,01,02,22,0.00
2010,06,01,02,23,0.00
2010,06,01,02,24,0.00
2010,06,01,02,25,0.00
2010,06,01,02,26,0.00
2010,06,01,02,27,0.00
2010,06,01,02,28,0.00
2010,06,01,02,29,0.00
2010,06,01,02,30,0.00
2010,06,01,02,31,0.00
2010,06,01,02,32,0.00
2010,06,01,02,33,0.00
2010,06,01,02,34,0.00
2010,06,01,02,35,0.00
2010,06,01,02,36,0.00
2010,06,01,02,37,0.00
2010,06,01,02,38,0.00
2010,06,01,02,39,0.00
2010,06,01,02,40,0.00
2010,06,01,02,41,0.00
2010,06,01,02,42,0.00
2010,06,01,02,43,0.00
2010,06,01,02,44,0.00
2010,06,01,02,45,0.00
2010,06,01,02,46,0.00
2010,06,01,02,47,0.00
2010,06,01,02,48,0.00
2010,06,01,02,49,0.00
2010,06,01,02,50,0.00
2010,06,01,02,51,0.00
2010,06,01,02,52,0.00
2010,06,01,02,53,0.00
2010,06,01,02,54,0.00
2010,06,01,02,55,0.00
2010,06,01,02,56,0.00
2010,06,01,02,57,0.00
2010,06,01,02,58,0.00
2010,06,01,02,59,0.00
2010,06,01,03,00,0.00
2010,06,01,03,01,0.00
2010,06,01,03,02,0.00
2010,06,01,03,03,0.00
2010,06,01,03,04,0.00
2010,06,01,03,05,0.00
2010,06,01,03,06,0.00
2010,06,01,03,07,0.00
2010,06,01,03,08,0.00
2010,06,01,03,09,0.00
2010,06,01,03,10,0.00
2010,06,01,03,11,0.00
2010,06,01,03,12,0.00
2010,06,01,03,13,0.00
2010,06,01,03,14,0.00
2010,06,01,03,15,0.00
2010,06,01,03,16,0.00
2010,06,01,03,17,0.00
2010,06,01,03,18,0.00
2010,06,01,03,19,0.00
2010,06,01,03,20,0.00
2010,06,01,03,21,0.00
2010,06,01,03,22,0.00
2010,06,01,03,23,0.00
2010,06,01,03,24,0.00
2010,06,01,03,25,0.00
2010,06,01,03,26,0.00
2010,06,01,03,27,0.00
2010,06,01,03,28,0.00
2010,06,01,03,29,0.00
2010,06,01,03,30,0.00
2010,06,01,03,31,0.00
2010,06,01,03,32,0.00
2010,06,01,03,33,0.00
2010,06,01,03,34,0.00
2010,06,01,03,35,0.00
2010,06,01,03,36,0.00
2010,06,01,03,37,0.00
2010,06,01,03,38,0.00
2010,06,01,03,39,0.00
2010,06,01,03,40,0.00
2010,06,01,03,41,0.00
2010,06,01,03,42,0.00
2010,06,01,03,43,0.00
2010,06,01,03,44,0.00
2010,06,01,03,45,0.00
2010,06,01,03,46,0.00
2010,06,01,03,47,0.00
2010,06,01,03,48,0.00
2010,06,01,03,49,0.00
2010,06,01,03,50,0.00
2010,06,01,03,51,0.00
2010,06,01,03,52,0.00
2010,06,01,03,53,0.00
2010,06,01,03,54,0.00
2010,06,01,03,55,0.00
2010,06,01,03,56,0.00
2010,06,01,03,57,0.00
2010,06,01,03,58,0.00
2010,06,01,03,59,0.00
2010,06,01,04,00,0.00
2010,06,01,04,01,0.00
2010,06,01,04,02,0.00
2010,06,01,04,03,0.00
2010,06,01,04,04,0.00
2010,06,01,04,05,0.00
2010,06,01,04,06,0.00
2010,06,01,04,07,0.00
2010,06,01,04,08,0.00
2010,06,01,04,09,0.00
2010,06,01,04,10,0.00
2010,06,01,04,11,0.00
2010,06,01,04,12,0.00
2010,06,01,04,13,0.00
2010,06,01,04,14,0.00
2010,06,01,04,15,0.00
2010,06,01,04,16,0.00
2010,06,01,04,17,0.00
2010,06,01,04,18,0.00
2010,06,01,04,19,0.00
2010,06,01,04,20,0.00
2010,06,01,04,21,0.00
2010,06,01,04,22,0.00
2010,06,01,04,23,0.00
2010,06,01,04,24,0.00
2010,06,01,04,25,0.00
2010,06,01,04,26,0.00
2010,06,01,04,27,0.00
2010,06,01,04,28,0.00
2010,06,01,04,29,0.00
2010,06,01,04,30,0.00
2010,06,01,04,31,0.00
2010,06,01,04,32,0.00
2010,06,01,04,33,0.00
2010,06,01,04,34,0.00
2010,06,01,04,35,0.00
2010,06,01,04,36,0.00
2010,06,01,04,37,0.00
2010,06,01,04,38,0.00
2010,06,01,04,39,0.00
2010,06,01,04,40,0.00
2010,06,01,04,41,0.00
2010,06,01,04,42,0.00
2010,06,01,04,43,0.00
2010,06,01,04,44,0.00
2010,06,01,04,45,0.00
2010,06,01,04,46,0.00
2010,06,01,04,47,0.00
2010,06,01,04,48,0.00
2010,06,01,04,49,0.00
2010,06,01,04,50,0.00
2010,06,01,04,51,0.00
2010,06,01,04,52,0.00
2010,06,01,04,53,0.00
2010,06,01,04,54,0.00
2010,06,01,04,55,0.00
2010,06,01,04,56,0.00
2010,06,01,04,57,0.00
2010,06,01,04,58,0.00
2010,06,01,04,59,0.00
2010,06,01,05,00,0.00
2010,06,01,05,01,0.00
2010,06,01,05,02,0.00
2010,06,01,05,03,0.00
2010,06,01,05,04,0.00
2010,06,01,05,05,0.00
2010,06,01,05,06,0.00
2010,06,01,05,07,0.00
2010,06,01,05,08,0.00
2010,06,01,05,09,0.00
2010,06,01,05,10,0.00
2010,06,01,05,11,0.00
2010,06,01,05,12,0.00
2010,06,01,05,13,2.20
2010,06,01,05,14,5.00
2010,06,01,05,15,5.00
2010,06,01,05,16,5.00
2010,06,01,05,17,5.00
2010,06,01,05,18,6.70
2010,06,01,05,19,7.00
2010,06,01,05,20,9.00
2010,06,01,05,21,9.00
2010,06,01,05,22,9.00
2010,06,01,05,23,9.00
2010,06,01,05,24,9.00
2010,06,01,05,25,9.00
2010,06,01,05,26,7.80
2010,06,01,05,27,7.00
2010,06,01,05,28,7.00
2010,06,01,05,29,7.00
2010,06,01,05,30,7.00
2010,06,01,05,31,7.00
2010,06,01,05,32,7.40
2010,06,01,05,33,9.00
2010,06,01,05,34,9.00
2010,06,01,05,35,9.90
2010,06,01,05,36,11.00
2010,06,01,05,37,11.00
2010,06,01,05,38,11.00
2010,06,01,05,39,11.00
2010,06,01,05,40,11.90
2010,06,01,05,41,12.00
2010,06,01,05,42,12.00
2010,06,01,05,43,12.00
2010,06,01,05,44,12.50
2010,06,01,05,45,14.00
2010,06,01,05,46,14.00
2010,06,01,05,47,14.00
2010,06,01,05,48,14.00
2010,06,01,05,49,15.40
2010,06,01,05,50,16.00
2010,06,01,05,51,16.00
2010,06,01,05,52,17.90
2010,06,01,05,53,18.00
2010,06,01,05,54,18.00
2010,06,01,05,55,18.00
2010,06,01,05,56,18.40
2010,06,01,05,57,19.00
2010,06,01,05,58,20.00
2010,06,01,05,59,22.30
2010,06,01,06,00,24.30
2010,06,01,06,01,25.00
2010,06,01,06,02,25.00
2010,06,01,06,03,25.00
2010,06,01,06,04,25.00
2010,06,01,06,05,25.20
2010,06,01,06,06,27.00
2010,06,01,06,07,30.70
2010,06,01,06,08,32.40
2010,06,01,06,09,33.00
2010,06,01,06,10,33.00
2010,06,01,06,11,32.30
2010,06,01,06,12,32.00
2010,06,01,06,13,32.80
2010,06,01,06,14,33.10
2010,06,01,06,15,35.00
2010,06,01,06,16,35.40
2010,06,01,06,17,37.60
2010,06,01,06,18,39.40
2010,06,01,06,19,40.90
2010,06,01,06,20,43.00
2010,06,01,06,21,45.90
2010,06,01,06,22,48.40
2010,06,01,06,23,50.50
2010,06,01,06,24,52.70
2010,06,01,06,25,56.00
2010,06,01,06,26,60.30
2010,06,01,06,27,62.00
2010,06,01,06,28,61.50
2010,06,01,06,29,59.20
2010,06,01,06,30,58.00
2010,06,01,06,31,58.00
2010,06,01,06,32,58.00
2010,06,01,06,33,56.60
2010,06,01,06,34,54.50
2010,06,01,06,35,53.10
2010,06,01,06,36,53.00
2010,06,01,06,37,51.00
2010,06,01,06,38,50.60
2010,06,01,06,39,48.50
2010,06,01,06,40,46.70
2010,06,01,06,41,45.10
2010,06,01,06,42,44.00
2010,06,01,06,43,44.00
2010,06,01,06,44,44.00
2010,06,01,06,45,45.60
2010,06,01,06,46,46.00
2010,06,01,06,47,46.00
2010,06,01,06,48,46.00
2010,06,01,06,49,46.00
2010,06,01,06,50,46.00
2010,06,01,06,51,46.00
2010,06,01,06,52,46.00
2010,06,01,06,53,46.00
2010,06,01,06,54,46.60
2010,06,01,06,55,48.40
2010,06,01,06,56,49.00
2010,06,01,06,57,55.00
2010,06,01,06,58,61.70
2010,06,01,06,59,67.40
2010,06,01,07,00,70.80
2010,06,01,07,01,74.00
2010,06,01,07,02,74.00
2010,06,01,07,03,74.00
2010,06,01,07,04,74.00
2010,06,01,07,05,74.00
2010,06,01,07,06,74.00
2010,06,01,07,07,72.50
2010,06,01,07,08,72.00
2010,06,01,07,09,72.00
2010,06,01,07,10,74.20
2010,06,01,07,11,76.60
2010,06,01,07,12,80.20
2010,06,01,07,13,86.10
2010,06,01,07,14,91.40
2010,06,01,07,15,95.50
2010,06,01,07,16,99.20
2010,06,01,07,17,102.90
2010,06,01,07,18,104.00
2010,06,01,07,19,104.00
2010,06,01,07,20,104.90
2010,06,01,07,21,104.90
2010,06,01,07,22,103.20
2010,06,01,07,23,99.10
2010,06,01,07,24,94.80
2010,06,01,07,25,87.80
2010,06,01,07,26,81.20
2010,06,01,07,27,75.80
2010,06,01,07,28,72.70
2010,06,01,07,29,72.00
2010,06,01,07,30,75.40
2010,06,01,07,31,76.50
2010,06,01,07,32,87.30
2010,06,01,07,33,96.50
2010,06,01,07,34,103.50
2010,06,01,07,35,108.50
2010,06,01,07,36,111.90
2010,06,01,07,37,110.90
2010,06,01,07,38,106.60
2010,06,01,07,39,99.80
2010,06,01,07,40,94.00
2010,06,01,07,41,86.70
2010,06,01,07,42,81.00
2010,06,01,07,43,75.80
2010,06,01,07,44,73.60
2010,06,01,07,45,71.50
2010,06,01,07,46,70.00
2010,06,01,07,47,70.00
2010,06,01,07,48,70.00
2010,06,01,07,49,70.00
2010,06,01,07,50,69.30
2010,06,01,07,51,69.00
2010,06,01,07,52,67.30
2010,06,01,07,53,65.10
2010,06,01,07,54,65.00
2010,06,01,07,55,65.40
2010,06,01,07,56,67.60
2010,06,01,07,57,69.40
2010,06,01,07,58,70.90
2010,06,01,07,59,70.90
2010,06,01,08,00,69.40
2010,06,01,08,01,66.20
2010,06,01,08,02,62.80
2010,06,01,08,03,60.30
2010,06,01,08,04,58.20
2010,06,01,08,05,60.30
2010,06,01,08,06,62.80
2010,06,01,08,07,67.80
2010,06,01,08,08,70.00
2010,06,01,08,09,69.60
2010,06,01,08,10,67.00
2010,06,01,08,11,65.00
2010,06,01,08,12,65.00
2010,06,01,08,13,66.60
2010,06,01,08,14,71.50
2010,06,01,08,15,79.00
2010,06,01,08,16,87.10
2010,06,01,08,17,93.00
2010,06,01,08,18,96.30
2010,06,01,08,19,105.80
2010,06,01,08,20,109.90
2010,06,01,08,21,112.00
2010,06,01,08,22,113.00
2010,06,01,08,23,113.00
2010,06,01,08,24,111.40
2010,06,01,08,25,111.00
2010,06,01,08,26,112.80
2010,06,01,08,28,122.20
2010,06,01,08,29,129.10
2010,06,01,08,30,135.80
2010,06,01,08,31,140.40
2010,06,01,08,32,144.00
2010,06,01,08,33,146.00
2010,06,01,08,34,146.00
2010,06,01,08,35,146.00
2010,06,01,08,36,146.00
2010,06,01,08,37,135.50
2010,06,01,08,38,134.00
2010,06,01,08,39,134.20
2010,06,01,08,40,135.50
2010,06,01,08,41,138.40
2010,06,01,08,42,141.40
2010,06,01,08,43,145.30
2010,06,01,08,44,153.10
2010,06,01,08,45,164.40
2010,06,01,08,46,176.50
2010,06,01,08,47,190.10
2010,06,01,08,48,204.00
2010,06,01,08,49,216.90
2010,06,01,08,50,226.40
2010,06,01,08,51,234.80
2010,06,01,08,52,245.70
2010,06,01,08,53,250.40
2010,06,01,08,54,244.40
2010,06,01,08,55,231.20
2010,06,01,08,56,220.70
2010,06,01,08,57,218.00
2010,06,01,08,58,220.70
2010,06,01,08,59,222.90
2010,06,01,09,00,222.70
2010,06,01,09,01,220.00
2010,06,01,09,02,215.20
2010,06,01,09,03,201.40
2010,06,01,09,04,195.10
2010,06,01,09,05,192.50
2010,06,01,09,06,193.90
2010,06,01,09,07,197.80
2010,06,01,09,08,201.40
2010,06,01,09,09,203.80
2010,06,01,09,10,207.00
2010,06,01,09,11,209.00
2010,06,01,09,12,209.40
2010,06,01,09,13,211.50
2010,06,01,09,14,213.00
2010,06,01,09,15,214.40
2010,06,01,09,16,218.80
2010,06,01,09,17,224.90
2010,06,01,09,18,230.80
2010,06,01,09,19,233.50
2010,06,01,09,20,234.00
2010,06,01,09,21,236.90
2010,06,01,09,22,236.90
2010,06,01,09,23,236.50
2010,06,01,09,24,239.00
2010,06,01,09,25,239.70
2010,06,01,09,26,241.90
2010,06,01,09,27,244.60
2010,06,01,09,28,248.40
2010,06,01,09,29,250.00
2010,06,01,09,30,248.50
2010,06,01,09,31,244.40
2010,06,01,09,32,237.10
2010,06,01,09,33,231.80
2010,06,01,09,34,230.40
2010,06,01,09,35,233.40
2010,06,01,09,36,238.50
2010,06,01,09,37,240.10
2010,06,01,09,38,237.40
2010,06,01,09,39,236.00
2010,06,01,09,40,240.90
2010,06,01,09,41,249.40
2010,06,01,09,42,263.10
2010,06,01,09,43,277.40
2010,06,01,09,44,288.90
2010,06,01,09,45,297.40
2010,06,01,09,46,297.90
2010,06,01,09,47,292.20
2010,06,01,09,48,288.00
2010,06,01,09,49,277.00
2010,06,01,09,50,267.00
2010,06,01,09,51,259.00
2010,06,01,09,52,253.50
2010,06,01,09,53,250.30
2010,06,01,09,54,248.10
2010,06,01,09,55,243.50
2010,06,01,09,56,238.00
2010,06,01,09,57,232.80
2010,06,01,09,58,231.40
2010,06,01,09,59,238.10
2010,06,01,10,00,245.50
2010,06,01,10,01,249.90
2010,06,01,10,02,250.30
2010,06,01,10,03,248.40
2010,06,01,10,04,249.70
2010,06,01,10,05,254.80
2010,06,01,10,06,260.50
2010,06,01,10,07,265.60
2010,06,01,10,08,270.40
2010,06,01,10,09,274.00
2010,06,01,10,10,282.10
2010,06,01,10,11,295.70
2010,06,01,10,12,300.80
2010,06,01,10,13,302.00
2010,06,01,10,14,299.60
2010,06,01,10,15,295.40
2010,06,01,10,16,295.00
2010,06,01,10,17,299.50
2010,06,01,10,18,305.80
2010,06,01,10,19,315.60
2010,06,01,10,20,326.00
2010,06,01,10,21,338.20
2010,06,01,10,22,354.50
2010,06,01,10,23,383.20
2010,06,01,10,24,410.70
2010,06,01,10,25,405.80
2010,06,01,10,26,421.80
2010,06,01,10,27,455.40
2010,06,01,10,28,506.00
2010,06,01,10,29,504.20
2010,06,01,10,30,495.80
2010,06,01,10,31,496.90
2010,06,01,10,32,497.50
2010,06,01,10,33,520.50
2010,06,01,10,34,501.20
2010,06,01,10,35,456.40
2010,06,01,10,36,429.60
2010,06,01,10,37,411.60
2010,06,01,10,38,397.60
2010,06,01,10,39,396.10
2010,06,01,10,40,397.80
2010,06,01,10,41,401.00
2010,06,01,10,42,404.50
2010,06,01,10,43,411.00
2010,06,01,10,44,408.40
2010,06,01,10,45,395.20
2010,06,01,10,46,388.00
2010,06,01,10,47,380.10
2010,06,01,10,48,378.00
2010,06,01,10,49,373.20
2010,06,01,10,50,374.40
2010,06,01,10,51,379.80
2010,06,01,10,52,391.80
2010,06,01,10,53,407.80
2010,06,01,10,54,407.40
2010,06,01,10,55,399.50
2010,06,01,10,56,391.20
2010,06,01,10,57,388.00
2010,06,01,10,58,394.80
2010,06,01,10,59,410.60
2010,06,01,11,00,419.60
2010,06,01,11,01,421.80
2010,06,01,11,02,418.00
2010,06,01,11,03,404.00
2010,06,01,11,04,383.70
2010,06,01,11,05,366.70
2010,06,01,11,06,353.50
2010,06,01,11,07,346.80
2010,06,01,11,08,352.30
2010,06,01,11,09,370.80
2010,06,01,11,10,405.80
2010,06,01,11,11,458.50
2010,06,01,11,12,507.60
2010,06,01,11,13,468.00
2010,06,01,11,14,502.60
2010,06,01,11,15,495.00
2010,06,01,11,16,471.50
2010,06,01,11,17,438.90
2010,06,01,11,18,427.80
2010,06,01,11,19,431.50
2010,06,01,11,20,440.80
2010,06,01,11,21,450.60
2010,06,01,11,22,456.80
2010,06,01,11,23,464.70
2010,06,01,11,24,472.00
2010,06,01,11,25,476.60
2010,06,01,11,26,480.00
2010,06,01,11,27,478.50
2010,06,01,11,28,468.00
2010,06,01,11,29,464.00
2010,06,01,11,30,476.60
2010,06,01,11,31,505.20
2010,06,01,11,32,512.20
2010,06,01,11,33,473.00
2010,06,01,11,34,453.40
2010,06,01,11,35,451.80
2010,06,01,11,36,503.00
2010,06,01,11,37,503.00
2010,06,01,11,38,503.00
2010,06,01,11,39,503.00
2010,06,01,11,40,709.40
2010,06,01,11,41,836.00
2010,06,01,11,42,820.20
2010,06,01,11,43,817.00
2010,06,01,11,44,852.20
2010,06,01,11,45,941.60
2010,06,01,11,46,875.00
2010,06,01,11,47,875.00
2010,06,01,11,48,769.30
2010,06,01,11,49,586.50
2010,06,01,11,50,622.50
2010,06,01,11,51,616.20
2010,06,01,11,52,583.40
2010,06,01,11,53,573.50
2010,06,01,11,54,529.70
2010,06,01,11,55,526.20
2010,06,01,11,56,520.30
2010,06,01,11,57,551.20
2010,06,01,11,58,568.50
2010,06,01,11,59,582.00
2010,06,01,12,00,582.00
2010,06,01,12,01,734.00
2010,06,01,12,02,886.00
2010,06,01,12,03,886.00
2010,06,01,12,04,721.00
2010,06,01,12,05,640.50
2010,06,01,12,06,659.80
2010,06,01,12,07,659.00
2010,06,01,12,08,659.00
2010,06,01,12,09,653.50
2010,06,01,12,10,625.80
2010,06,01,12,11,581.40
2010,06,01,12,12,527.00
2010,06,01,12,13,492.00
2010,06,01,12,14,488.20
2010,06,01,12,15,491.50
2010,06,01,12,16,481.20
2010,06,01,12,17,475.00
2010,06,01,12,18,485.50
2010,06,01,12,19,491.80
2010,06,01,12,20,502.40
2010,06,01,12,21,512.00
2010,06,01,12,22,519.70
2010,06,01,12,23,532.80
2010,06,01,12,24,539.00
2010,06,01,12,25,539.00
2010,06,01,12,26,535.00
2010,06,01,12,27,534.00
2010,06,01,12,28,534.70
2010,06,01,12,29,554.00
2010,06,01,12,30,608.80
2010,06,01,12,31,690.20
2010,06,01,12,32,765.20
2010,06,01,12,33,764.80
2010,06,01,12,34,697.20
2010,06,01,12,35,643.00
2010,06,01,12,36,605.20
2010,06,01,12,37,598.00
2010,06,01,12,38,586.10
2010,06,01,12,39,585.00
2010,06,01,12,40,571.70
2010,06,01,12,41,553.70
2010,06,01,12,42,529.90
2010,06,01,12,43,529.70
2010,06,01,12,44,550.40
2010,06,01,12,45,589.20
2010,06,01,12,46,597.20
2010,06,01,12,47,614.10
2010,06,01,12,48,659.50
2010,06,01,12,49,695.90
2010,06,01,12,50,632.40
2010,06,01,12,51,629.10
2010,06,01,12,52,654.00
2010,06,01,12,53,717.00
2010,06,01,12,54,775.30
2010,06,01,12,55,870.00
2010,06,01,12,56,870.00
2010,06,01,12,57,870.00
2010,06,01,12,58,759.50
2010,06,01,12,59,736.60
2010,06,01,13,00,781.50
2010,06,01,13,01,778.60
2010,06,01,13,02,608.50
2010,06,01,13,03,587.00
2010,06,01,13,04,567.80
2010,06,01,13,05,623.00
2010,06,01,13,06,724.60
2010,06,01,13,07,806.20
2010,06,01,13,08,830.00
2010,06,01,13,09,926.40
2010,06,01,13,10,965.00
2010,06,01,13,11,981.30
2010,06,01,13,12,1012.00
2010,06,01,13,13,931.40
2010,06,01,13,14,926.00
2010,06,01,13,15,957.70
2010,06,01,13,16,1030.90
2010,06,01,13,17,1028.20
2010,06,01,13,18,989.30
2010,06,01,13,19,933.60
2010,06,01,13,20,894.50
2010,06,01,13,21,881.00
2010,06,01,13,22,881.00
2010,06,01,13,23,976.00
2010,06,01,13,24,949.00
2010,06,01,13,25,768.00
2010,06,01,13,26,696.90
2010,06,01,13,27,567.10
2010,06,01,13,28,638.00
2010,06,01,13,29,649.00
2010,06,01,13,30,659.50
2010,06,01,13,31,682.90
2010,06,01,13,32,669.00
2010,06,01,13,33,644.20
2010,06,01,13,34,622.70
2010,06,01,13,35,633.00
2010,06,01,13,36,672.00
2010,06,01,13,37,828.00
2010,06,01,13,38,828.00
2010,06,01,13,39,828.00
2010,06,01,13,40,828.00
2010,06,01,13,41,828.00
2010,06,01,13,42,735.60
2010,06,01,13,43,696.00
2010,06,01,13,44,933.60
2010,06,01,13,45,940.00
2010,06,01,13,46,921.20
2010,06,01,13,47,921.60
2010,06,01,13,48,912.00
2010,06,01,13,49,905.60
2010,06,01,13,50,921.40
2010,06,01,13,51,933.50
2010,06,01,13,52,921.00
2010,06,01,13,53,901.30
2010,06,01,13,54,902.50
2010,06,01,13,55,969.50
2010,06,01,13,56,1002.80
2010,06,01,13,57,1014.80
2010,06,01,13,58,1000.40
2010,06,01,13,59,970.80
2010,06,01,14,00,925.00
2010,06,01,14,01,832.30
2010,06,01,14,02,716.20
2010,06,01,14,03,714.00
2010,06,01,14,04,668.50
2010,06,01,14,05,656.50
2010,06,01,14,06,662.40
2010,06,01,14,07,599.30
2010,06,01,14,08,596.00
2010,06,01,14,09,596.00
2010,06,01,14,10,596.00
2010,06,01,14,11,594.60
2010,06,01,14,12,601.50
2010,06,01,14,13,630.00
2010,06,01,14,14,675.20
2010,06,01,14,15,739.50
2010,06,01,14,16,720.00
2010,06,01,14,17,730.40
2010,06,01,14,18,678.50
2010,06,01,14,19,652.30
2010,06,01,14,20,654.00
2010,06,01,14,21,654.00
2010,06,01,14,22,646.00
2010,06,01,14,23,594.50
2010,06,01,14,24,539.00
2010,06,01,14,25,511.40
2010,06,01,14,26,479.20
2010,06,01,14,27,479.40
2010,06,01,14,28,482.00
2010,06,01,14,29,500.40
2010,06,01,14,30,512.50
2010,06,01,14,31,537.20
2010,06,01,14,32,544.00
2010,06,01,14,33,577.00
2010,06,01,14,34,620.20
2010,06,01,14,35,673.00
2010,06,01,14,36,571.60
2010,06,01,14,37,499.10
2010,06,01,14,38,473.80
2010,06,01,14,39,468.00
2010,06,01,14,40,507.90
2010,06,01,14,41,478.70
2010,06,01,14,42,494.20
2010,06,01,14,43,549.50
2010,06,01,14,44,597.70
2010,06,01,14,45,552.00
2010,06,01,14,46,531.70
2010,06,01,14,47,563.80
2010,06,01,14,48,536.50
2010,06,01,14,49,521.60
2010,06,01,14,50,498.70
2010,06,01,14,51,487.50
2010,06,01,14,52,509.60
2010,06,01,14,53,474.60
2010,06,01,14,54,505.20
2010,06,01,14,55,430.90
2010,06,01,14,56,430.00
2010,06,01,14,57,438.60
2010,06,01,14,58,451.80
2010,06,01,14,59,470.90
2010,06,01,15,00,488.00
2010,06,01,15,01,517.50
2010,06,01,15,02,572.30
2010,06,01,15,03,557.10
2010,06,01,15,04,536.80
2010,06,01,15,05,521.50
2010,06,01,15,06,507.00
2010,06,01,15,07,452.50
2010,06,01,15,08,417.50
2010,06,01,15,09,383.40
2010,06,01,15,10,364.50
2010,06,01,15,11,349.50
2010,06,01,15,12,339.20
2010,06,01,15,13,330.00
2010,06,01,15,14,321.10
2010,06,01,15,15,316.00
2010,06,01,15,16,311.50
2010,06,01,15,17,300.30
2010,06,01,15,18,300.40
2010,06,01,15,19,307.00
2010,06,01,15,20,320.10
2010,06,01,15,21,335.30
2010,06,01,15,22,347.20
2010,06,01,15,23,354.20
2010,06,01,15,24,359.80
2010,06,01,15,25,359.70
2010,06,01,15,26,356.60
2010,06,01,15,27,354.40
2010,06,01,15,28,353.70
2010,06,01,15,29,359.00
2010,06,01,15,30,369.00
2010,06,01,15,31,379.40
2010,06,01,15,32,390.70
2010,06,01,15,33,418.80
2010,06,01,15,34,462.70
2010,06,01,15,35,469.00
2010,06,01,15,36,451.80
2010,06,01,15,37,449.20
2010,06,01,15,38,441.00
2010,06,01,15,39,432.50
2010,06,01,15,40,440.80
2010,06,01,15,41,435.60
2010,06,01,15,42,426.60
2010,06,01,15,43,427.90
2010,06,01,15,44,429.00
2010,06,01,15,45,450.40
2010,06,01,15,46,456.90
2010,06,01,15,47,458.60
2010,06,01,15,48,475.20
2010,06,01,15,49,483.10
2010,06,01,15,50,474.40
2010,06,01,15,51,461.60
2010,06,01,15,52,450.70
2010,06,01,15,53,438.50
2010,06,01,15,54,417.00
2010,06,01,15,55,397.80
2010,06,01,15,56,382.30
2010,06,01,15,57,367.70
2010,06,01,15,58,356.90
2010,06,01,15,59,338.00
2010,06,01,16,00,339.20
2010,06,01,16,01,341.50
2010,06,01,16,02,347.60
2010,06,01,16,03,359.60
2010,06,01,16,04,368.80
2010,06,01,16,05,389.40
2010,06,01,16,06,413.20
2010,06,01,16,07,432.20
2010,06,01,16,08,445.40
2010,06,01,16,09,446.10
2010,06,01,16,10,450.80
2010,06,01,16,11,435.20
2010,06,01,16,12,427.70
2010,06,01,16,13,393.90
2010,06,01,16,14,370.90
2010,06,01,16,15,362.80
2010,06,01,16,16,355.00
2010,06,01,16,17,346.70
2010,06,01,16,18,345.00
2010,06,01,16,19,351.70
2010,06,01,16,20,353.00
2010,06,01,16,21,353.00
2010,06,01,16,22,359.60
2010,06,01,16,23,369.60
2010,06,01,16,24,356.60
2010,06,01,16,25,352.50
2010,06,01,16,26,354.20
2010,06,01,16,27,353.60
2010,06,01,16,28,345.40
2010,06,01,16,29,343.00
2010,06,01,16,30,338.20
2010,06,01,16,31,328.10
2010,06,01,16,32,309.20
2010,06,01,16,33,299.50
2010,06,01,16,34,286.40
2010,06,01,16,35,271.00
2010,06,01,16,36,261.50
2010,06,01,16,37,253.80
2010,06,01,16,38,247.50
2010,06,01,16,39,244.40
2010,06,01,16,40,243.10
2010,06,01,16,41,242.90
2010,06,01,16,42,240.60
2010,06,01,16,43,236.00
2010,06,01,16,44,229.90
2010,06,01,16,45,221.40
2010,06,01,16,46,212.90
2010,06,01,16,47,207.40
2010,06,01,16,48,203.50
2010,06,01,16,49,202.00
2010,06,01,16,50,202.00
2010,06,01,16,51,202.00
2010,06,01,16,52,202.00
2010,06,01,16,53,202.00
2010,06,01,16,54,202.60
2010,06,01,16,55,206.80
2010,06,01,16,56,211.40
2010,06,01,16,57,218.20
2010,06,01,16,58,225.00
2010,06,01,16,59,229.00
2010,06,01,17,00,238.80
2010,06,01,17,01,245.40
2010,06,01,17,02,249.60
2010,06,01,17,03,247.70
2010,06,01,17,04,242.40
2010,06,01,17,05,235.40
2010,06,01,17,06,227.00
2010,06,01,17,07,218.60
2010,06,01,17,08,211.80
2010,06,01,17,09,206.20
2010,06,01,17,10,201.60
2010,06,01,17,11,199.30